This demonstration page uses our WeatherBlox Daily Observations layout. Learn more.

40.92945, -100.16068

Hourly Observations for April 9, 2017

Temp ( °F °C ) Dew Point ( °F °C ) Humidity (%) Winds ( mph kmh ) Pressure ( in mb ) Visibility ( mi km ) Precip ( " mm )
12:15 am 00:15 Clear 51 10.8 46 7.9 82 82 ESE 6 9 29.53 1000 10 16.0934 0 0
12:35 am 00:35 Clear 54 12.3 47 8.4 77 77 SE 3 6 29.47 998 10 16.0934 0 0
12:55 am 00:55 Clear 53 11.5 46 8 79 79 ESE 3 6 29.5 999 10 16.0934 0 0
1:15 am 01:15 Clear 54 12.3 47 8.5 78 78 Calm 29.47 998 10 16.0934 0 0
1:35 am 01:35 Clear 52 10.9 46 7.5 80 80 Calm 29.5 999 10 16.0934 0 0
1:55 am 01:55 Clear 51 10.5 46 7.7 83 83 Calm 29.5 999 10 16.0934 0 0
2:15 am 02:15 Clear 51 10.8 46 7.6 81 81 SE 3 6 29.47 998 10 16.0934 0 0
2:35 am 02:35 Clear 52 11 46 7.5 79 79 ESE 3 6 29.47 998 10 16.0934 0 0
2:55 am 02:55 Clear 51 10.4 45 7.2 81 81 N 3 6 29.47 998 10 16.0934 0 0
3:15 am 03:15 Clear 49 9.6 45 7.3 86 86 NNE 8 13 29.47 998 10 16.0934 0 0
3:35 am 03:35 Clear 51 10.3 46 7.6 84 84 NE 9 15 29.44 997 10 16.0934 0 0
3:55 am 03:55 Clear 50 9.9 45 7.1 83 83 ENE 8 13 29.44 997 10 16.0934 0 0
4:15 am 04:15 Clear 50 10 45 7.3 83 83 Calm 29.44 997 10 16.0934 0 0
4:35 am 04:35 Clear 49 9.3 45 7.3 87 87 NW 3 6 29.47 998 10 16.0934 0 0
4:55 am 04:55 Clear 45 7.3 42 5.7 90 90 NNW 7 11 29.5 999 10 16.0934 0 0
5:15 am 05:15 Clear 45 7.1 42 5.6 90 90 N 6 9 29.47 998 10 16.0934 0 0
5:35 am 05:35 Clear 43 6.2 41 5 92 92 NW 3 6 29.5 999 10 16.0934 0 0
5:55 am 05:55 Clear 43 5.9 40 4.6 91 91 WNW 8 13 29.5 999 10 16.0934 0 0
6:15 am 06:15 Clear 43 6.2 41 5.1 93 93 N 7 11 29.5 999 10 16.0934 0 0
6:35 am 06:35 Clear 47 8.2 44 6.4 89 89 N 6 9 29.47 998 10 16.0934 0 0
6:55 am 06:55 Clear 48 8.7 44 6.5 86 86 N 6 9 29.5 999 10 16.0934 0 0
7:15 am 07:15 Sunny 47 8.1 42 5.8 86 86 N 5 7 29.53 1000 10 16.0934 0 0
7:35 am 07:35 Sunny 46 7.5 42 5.4 87 87 WNW 5 7 29.56 1001 10 16.0934 0 0
7:55 am 07:55 Sunny 47 8.1 44 6.5 90 90 WNW 7 11 29.56 1001 10 16.0934 0 0
8:15 am 08:15 Sunny 49 9.4 46 7.6 89 89 NW 7 11 29.53 1000 10 16.0934 0 0
8:35 am 08:35 Sunny 51 10.6 46 8 84 84 N 13 20 29.5 999 10 16.0934 0 0
8:55 am 08:55 Partly Cloudy 54 12 47 8.2 78 78 N 15 24 29.5 999 10 16.0934 0 0
9:15 am 09:15 Cloudy 54 12.2 47 8.1 76 76 N 15 24 29.5 999 10 16.0934 0 0
9:35 am 09:35 Cloudy 55 12.5 46 8 74 74 N 8 13 29.53 1000 10 16.0934 0 0
9:55 am 09:55 Cloudy 55 13 47 8.2 73 73 N 12 19 29.53 1000 10 16.0934 0 0
10:15 am 10:15 Cloudy 57 13.8 47 8.5 71 71 N 15 24 29.53 1000 10 16.0934 0 0
10:35 am 10:35 Cloudy 57 14.1 47 8.5 69 69 N 14 22 29.53 1000 10 16.0934 0 0
10:55 am 10:55 Cloudy 59 15.1 48 8.9 67 67 N 16 26 29.53 1000 10 16.0934 0 0
11:15 am 11:15 Cloudy 59 15.2 48 8.9 66 66 N 14 22 29.53 1000 10 16.0934 0 0
11:35 am 11:35 Cloudy 60 15.8 49 9.2 65 65 N 13 20 29.5 999 10 16.0934 0 0
11:55 am 11:55 Cloudy 61 16 48 9 63 63 N 20 31 29.5 999 10 16.0934 0 0
12:15 pm 12:15 Cloudy 61 16.3 48 8.9 62 62 N 15 24 29.5 999 10 16.0934 0 0
12:35 pm 12:35 Cloudy 62 16.6 47 8.2 58 58 N 17 28 29.53 1000 10 16.0934 0 0
12:55 pm 12:55 Cloudy 63 17.1 48 8.7 58 58 N 15 24 29.5 999 10 16.0934 0 0
1:15 pm 13:15 Cloudy 64 17.9 49 9.3 57 57 N 16 26 29.5 999 10 16.0934 0 0
1:35 pm 13:35 Mostly Cloudy 65 18.6 48 9 54 54 NNE 17 28 29.5 999 10 16.0934 0 0
1:55 pm 13:55 Partly Cloudy 66 19 49 9.6 55 55 NNE 15 24 29.5 999 10 16.0934 0 0
2:15 pm 14:15 Partly Cloudy 67 19.6 49 9.3 52 52 NE 14 22 29.47 998 10 16.0934 0 0
2:35 pm 14:35 Sunny 68 19.8 48 8.8 49 49 NNE 12 19 29.47 998 10 16.0934 0 0
2:55 pm 14:55 Sunny 68 20.1 48 8.8 48 48 N 10 17 29.47 998 10 16.0934 0 0
3:15 pm 15:15 Sunny 69 20.3 47 8.6 47 47 NNE 12 19 29.44 997 10 16.0934 0 0
3:35 pm 15:35 Sunny 69 20.3 48 8.8 48 48 ENE 6 9 29.44 997 10 16.0934 0 0
3:55 pm 15:55 Sunny 69 20.6 48 8.7 47 47 ENE 10 17 29.44 997 10 16.0934 0 0
4:15 pm 16:15 Sunny 69 20.5 47 8.3 46 46 NE 5 7 29.44 997 10 16.0934 0 0
4:35 pm 16:35 Partly Cloudy 70 21 48 8.8 46 46 NE 5 7 29.47 998 10 16.0934 0 0
4:55 pm 16:55 Partly Cloudy 68 20.2 47 8.6 47 47 Calm 29.47 998 10 16.0934 0 0
5:15 pm 17:15 Mostly Cloudy with Nearby Thunderstorms 66 19.1 48 9 52 52 NNE 6 9 29.47 998 10 16.0934 0 0
5:35 pm 17:35 Mostly Cloudy with Nearby Thunderstorms 65 18.2 46 7.6 50 50 WNW 36 57 29.59 1002 10 16.0934 0 0
5:55 pm 17:55 Cloudy with Thunderstorms 49 9.3 45 7.3 87 87 NW 38 61 29.71 1006 2.5 4.02335 0.22 5.588
6:15 pm 18:15 Mostly Cloudy with Light Rain 50 10 46 8 88 88 NNW 32 52 29.65 1004 3 4.82802 0.03 0.762
6:35 pm 18:35 Sunny 51 10.8 46 7.7 81 81 NW 37 59 29.68 1005 10 16.0934 0.04 1.016
6:55 pm 18:55 Partly Cloudy 52 11.3 44 6.8 74 74 NNW 28 44 29.68 1005 10 16.0934 0.04 1.016
7:15 pm 19:15 Partly Cloudy 53 11.5 44 6.5 72 72 NNW 23 37 29.68 1005 10 16.0934 0 0
7:35 pm 19:35 Mostly Cloudy 51 10.4 43 6 74 74 NNW 22 35 29.68 1005 10 16.0934 0 0
7:55 pm 19:55 Partly Cloudy 50 9.8 44 6.5 80 80 NW 17 28 29.71 1006 10 16.0934 0 0
8:15 pm 20:15 Clear 49 9.6 43 6.3 80 80 NNW 12 19 29.71 1006 10 16.0934 0 0
8:35 pm 20:35 Clear 49 9.4 42 5.8 78 78 NW 10 17 29.74 1007 10 16.0934 0 0
8:55 pm 20:55 Clear 48 8.8 42 5.3 79 79 NNW 9 15 29.71 1006 10 16.0934 0 0
9:15 pm 21:15 Clear 46 7.8 40 4.7 81 81 NW 5 7 29.74 1007 10 16.0934 0 0
9:35 pm 21:35 Clear 45 7.4 40 4.5 82 82 W 6 9 29.8 1009 10 16.0934 0 0
9:55 pm 21:55 Clear 43 6.2 39 4.1 87 87 WNW 8 13 29.8 1009 10 16.0934 0 0
10:15 pm 22:15 Clear 43 6.2 40 4.3 88 88 W 6 9 29.83 1010 10 16.0934 0 0
10:35 pm 22:35 Clear 42 5.6 39 4 90 90 WNW 6 9 29.83 1010 10 16.0934 0 0
10:55 pm 22:55 Partly Cloudy 43 5.9 39 3.8 87 87 W 6 9 29.83 1010 10 16.0934 0 0
11:15 pm 23:15 Clear 42 5.3 38 3.4 88 88 NW 6 9 29.83 1010 10 16.0934 0 0
11:35 pm 23:35 Mostly Cloudy 41 4.9 38 3.2 89 89 WNW 5 7 29.88 1012 10 16.0934 0 0
11:55 pm 23:55 Partly Cloudy 46 7.6 37 2.6 71 71 NW 14 22 29.85 1011 10 16.0934 0 0

Powered by AerisWeather